Pasco, WA

3:22 AM PST on January 24, 2017 (GMT -0800)
Tri-Cities

Weather History for KPSC - June, 2013

Change the Weather History Date:

Friday, June 28, 2013

  Actual Average Record
Temperature  
Mean Temperature 77 °F 70 °F  
Max Temperature 96 °F 87 °F 111 °F (2015)
Min Temperature 58 °F 53 °F 49 °F (1998)
Degree Days  
Heating Degree Days 0 1  
Month to date heating degree days 19 36  
Since 1 June heating degree days 19 36  
Since 1 July heating degree days 4726 5026  
Cooling Degree Days 12 6  
Month to date cooling degree days 91 97  
Year to date cooling degree days 137 130  
Since 1 June cooling degree days 91 97  
Growing Degree Days 27 (Base 50)    
Moisture  
Dew Point 61 °F    
Average Humidity 62    
Maximum Humidity 93    
Minimum Humidity 30    
Precipitation  
Precipitation 0.00 in 0.01 in 0.30 in (1955)
Month to date precipitation 0.88 0.66  
Year to date precipitation 2.76 4.91  
Snow  
Snow 0.00 in - - ()
Snow Depth 0.00 in    
Sea Level Pressure  
Sea Level Pressure 30.07 in    
Wind  
Wind Speed 4 mph (NNW)    
Max Wind Speed 12 mph    
Max Gust Speed 16 mph    
Visibility 10 miles    
Events      
T = Trace of Precipitation, MM = Missing Value Source: NWS Daily Summary

Daily Weather History Graph

Daily Weather History Graph

Search for Another Location

Airport or City:

Trip Planner

Search our weather history database for the weather conditions in past years. The results will help you decide how hot, cold, wet, or windy it might be!

Date:

Astronomy

Jun. 28, 2013 Rise Set
Actual Time 5:07 AM PDT 8:52 PM PDT
Civil Twilight 4:28 AM PDT 9:31 PM PDT
Nautical Twilight 3:36 AM PDT 10:23 PM PDT
Astronomical Twilight 2:22 AM PDT 11:36 PM PDT
Moon 11:59 PM PDT (6/28) 11:42 AM PDT (6/28)
Length of Visible Light 17h 02m
Length of Day
15h 45m
Waning Gibbous, 65% of the Moon is Illuminated
Jun 28
Waning Gibbous
Jun 29
Last Quarter
Jul 8
New
Jul 15
First Quarter
Jul 22
Full

Hourly Weather History & Observations

Time (PDT) Temp. Heat Index Dew Point Humidity Pressure Visibility Wind Dir Wind Speed Gust Speed Precip Events Conditions
12:53 AM 64.9 °F - 57.9 °F 78% 30.15 in 10.0 mi North 3.5 mph - N/A   Clear
1:53 AM 64.0 °F - 59.0 °F 84% 30.15 in 10.0 mi Calm Calm - N/A   Clear
2:53 AM 62.1 °F - 59.0 °F 90% 30.15 in 10.0 mi Calm Calm - N/A   Clear
3:53 AM 61.0 °F - 57.9 °F 90% 30.15 in 10.0 mi Calm Calm - N/A   Partly Cloudy
4:53 AM 59.0 °F - 57.0 °F 93% 30.16 in 10.0 mi NW 4.6 mph - N/A   Clear
5:53 AM 60.1 °F - 57.9 °F 93% 30.17 in 10.0 mi NW 3.5 mph - N/A   Clear
6:53 AM 66.0 °F - 60.1 °F 81% 30.17 in 10.0 mi NNW 5.8 mph - N/A   Clear
7:53 AM 70.0 °F - 60.1 °F 71% 30.17 in 10.0 mi NNW 5.8 mph - N/A   Clear
8:53 AM 75.0 °F - 61.0 °F 62% 30.17 in 10.0 mi NNW 5.8 mph - N/A   Clear
9:53 AM 78.1 °F - 61.0 °F 56% 30.15 in 10.0 mi Variable 3.5 mph - N/A   Clear
10:53 AM 82.0 °F 83.0 °F 62.1 °F 51% 30.13 in 10.0 mi NNW 6.9 mph - N/A   Clear
11:53 AM 84.9 °F 85.4 °F 62.1 °F 46% 30.12 in 10.0 mi WNW 5.8 mph - N/A   Clear
12:53 PM 89.1 °F 89.3 °F 62.1 °F 40% 30.09 in 10.0 mi NNW 10.4 mph 16.1 mph N/A   Clear
1:53 PM 91.9 °F 91.8 °F 61.0 °F 35% 30.06 in 10.0 mi NNW 11.5 mph - N/A   Clear
2:53 PM 93.0 °F 93.0 °F 61.0 °F 34% 30.04 in 10.0 mi NNW 6.9 mph - N/A   Clear
3:53 PM 93.9 °F 93.6 °F 60.1 °F 32% 30.01 in 10.0 mi NNW 4.6 mph - N/A   Clear
4:53 PM 95.0 °F 94.4 °F 59.0 °F 30% 29.99 in 10.0 mi North 6.9 mph - N/A   Clear
5:53 PM 95.0 °F 94.8 °F 60.1 °F 31% 29.98 in 10.0 mi North 10.4 mph - N/A   Clear
6:53 PM 93.9 °F 93.6 °F 60.1 °F 32% 29.96 in 10.0 mi North 9.2 mph - N/A   Clear
7:53 PM 91.0 °F 92.6 °F 64.0 °F 41% 29.95 in 10.0 mi North 9.2 mph - N/A   Clear
8:53 PM 80.1 °F 82.1 °F 66.0 °F 62% 29.95 in 10.0 mi NNW 6.9 mph - N/A   Clear
9:53 PM 75.0 °F - 64.0 °F 69% 29.96 in 10.0 mi NNW 3.5 mph - N/A   Clear
10:53 PM 75.0 °F - 63.0 °F 66% 29.96 in 10.0 mi WNW 4.6 mph - N/A   Clear
11:53 PM 75.9 °F - 61.0 °F 60% 29.97 in 10.0 mi NW 6.9 mph - N/A   Clear